Regional Weather Roundup
Issued by NWS

Home | Current Version | Previous Version | Text Only | Print | Product List | Glossary On
Versions: 1 2 3 4 5 6 7 8 9 10 11 12 13 14 15 16 17 18 19 20 21 22 23 24 25 26 27 28 29 30 31 32 33 34 35 36 37 38 39 40 41 42 43 44 45 46 47 48 49 50
000
ASUS43 KMPX 210810
RWRMN
WEATHER ROUNDUP FOR MINNESOTA
NATIONAL WEATHER SERVICE TWIN CITIES/CHANHASSEN MN
300 AM CDT TUE OCT 21 2014


NOTE: "FAIR" INDICATES FEW OR NO CLOUDS BELOW 12,000 FEET WITH NO
SIGNIFICANT WEATHER AND/OR OBSTRUCTIONS TO VISIBILITY. N/A MEANS
CURRENT SKY AND/OR WEATHER CONDITIONS ARE NOT AVAILABLE.

MNZ060>063-068>070-210900-
   Twin Cities Metro

CITY           SKY/WX    TMP DP  RH WIND       PRES   REMARKS
TWIN CITIES    CLEAR     41  39  93 N3        30.14R
ST PAUL        CLEAR     42  38  85 NW5       30.15R
CRYSTAL        CLEAR     36  34  92 CALM      30.13R
BLAINE         CLEAR     37  37 100 CALM      30.14R
LAKEVILLE      CLEAR     32  30  93 CALM      30.13R FOG
EDEN PRAIRIE   CLEAR     42  39  89 N3        30.13R
SOUTH ST PAUL  CLEAR     41  37  86 CALM      30.13R
LAKE ELMO      FAIR      34  34 100 CALM      30.15R
$$
MNZ001>005-007-008-013>017-022>024-027-028-210900-
   Northwest Minnesota

CITY           SKY/WX    TMP DP  RH WIND       PRES   REMARKS
BEMIDJI        CLEAR     34  34  99 SE3       30.12S
HALLOCK        CLEAR     39  37  93 SE9       30.06S
ROSEAU         CLEAR     37  34  87 SE7       30.10F
WARROAD        CLEAR     36  32  87 SE5       30.12R
THIEF RVR FALL CLEAR     37  36  93 SE8       30.09R
CROOKSTON      CLEAR     39  37  93 SE10      30.08S
FOSSTON        CLEAR     39  36  87 SE10      30.10S
DETROIT LAKES  CLEAR     41  37  87 SE9       30.10F
MOORHEAD       CLEAR     45  43  93 SE8       30.08R
PARK RAPIDS    CLEAR     36  35  96 E5        30.12R
MAHNOMEN       FAIR      40  37  90 SE7       30.09S
$$
MNZ006-009>011-018-025>026-210900-
   North Central Minnesota

CITY           SKY/WX    TMP DP  RH WIND       PRES   REMARKS
BAUDETTE       CLEAR     34  32  92 SE6       30.14R WCI  29
FLAG ISLAND    CLEAR     43  37  81 SE14G22   30.11S
INTL FALLS     CLOUDY    41  34  76 SE8       30.16R
WASKISH        CLEAR     28  28 100 CALM      30.14R
BIG FORK       CLOUDY    41  36  81 CALM      30.15S
LONGVILLE      CLEAR     28  28 100 CALM      30.14R
GRAND RAPIDS   PTCLDY    36  32  87 CALM      30.15R
CRANE LAKE     CLOUDY    39  34  81 CALM      30.19S
ORR            CLOUDY    39  34  81 CALM      30.14R
COOK           CLOUDY    41  34  75 CALM      30.16S
WALKER         FAIR      38  36  90 SE5       30.13R
$$
MNZ012-019>021-037-210900-
   Northeast Minnesota

CITY           SKY/WX    TMP DP  RH WIND       PRES   REMARKS
DULUTH         CLOUDY    43  36  76 E12       30.15R
ELY            CLOUDY    39  34  81 E5        30.17R
HIBBING        MOCLDY    40  33  76 CALM      30.15R
EVELETH        MOCLDY    39  34  81 CALM      30.16R
DULUTH HARBOR  CLOUDY    46  41  81 E15       30.18R
TWO HARBORS    CLOUDY    45  27  49 E12       30.16R
SILVER BAY     PTCLDY    43  36  75 NE7       30.17R
GRAND MARAIS     N/A     41  32  70 NE8       30.21R
G MARAIS ARPRT CLOUDY    34  28  80 N5        30.18R WCI  30
$$
MNZ029>031-032-039>041-046>048-054>057-064-210900-
   West Central Minnesota

CITY           SKY/WX    TMP DP  RH WIND       PRES   REMARKS
FERGUS FALLS   CLEAR     45  37  76 SE9       30.10S
WHEATON        CLEAR     32  28  86 SE9       30.09S WCI  24
MORRIS         CLEAR     41  37  87 SE7       30.09R
ALEXANDRIA     CLEAR     40  37  89 E8        30.12R
ELBOW LAKE     FAIR      42  38  85 SE9       30.09R
WADENA         CLEAR     36  34  93 E5        30.11S
GLENWOOD       CLEAR     36  36 100 E5        30.12R
APPLETON       CLEAR     39  36  87 E8        30.09R
BENSON         CLEAR     43  37  81 SE6       30.10R
ORTONVILLE     CLEAR     43  36  75 E9        30.08R
MADISON        CLEAR     37  34  87 E7        30.08S
WILLMAR        FAIR      43  37  81 E8        30.13R
$$
MNZ033>034-036-042>043-049>051-058-059-210900-
   Central Minnesota

CITY           SKY/WX    TMP DP  RH WIND       PRES   REMARKS
ST CLOUD       CLEAR     41  36  82 E3        30.13R
SAUK CENTRE    FAIR      37  35  94 CALM      30.13R
PAYNESVILLE    CLEAR     33  32  99 CALM      30.13R
AITKIN         MOCLDY    30  25  80 CALM      30.13R HAZE
PINE RIVER     PTCLDY    28  28 100 CALM      30.17R FOG
BRAINERD       FOG       30  30 100 CALM      30.15R VSB 1/2
STAPLES        CLEAR     34  34 100 CALM      30.12S
LONG PRAIRIE   FAIR      36  34  93 E6        30.13R
LITTLE FALLS   CLEAR     32  32 100 CALM      30.14R FOG
LITCHFIELD     CLEAR     39  39 100 E3        30.13R
BUFFALO        CLEAR     36  33  90 CALM      30.15R
MAPLE LAKE     CLEAR     36  36  98 CALM      30.14S
$$
MNZ037-044-045-052-053-210900-
   East Central Minnesota

CITY           SKY/WX    TMP DP  RH WIND       PRES   REMARKS
PRINCETON      CLEAR     34  30  86 CALM      30.15R FOG
MORA           CLEAR     34  32  93 CALM      30.16R
CAMBRIDGE      CLEAR     36  28  75 CALM      30.13R
RUSH CITY      CLEAR     34  32  93 CALM      30.14R
MOOSE LAKE     CLOUDY    37  36  93 CALM      30.13R
HINCKLEY       FAIR      32  32 100 CALM      30.14R
CLOQUET        CLOUDY    45  37  76 E13       30.15R
MCGREGOR       MOCLDY    32  30  93 CALM      30.15R VSB 1
$$
MNZ071>073-080-081-089-090-097-098-210900-
   Southwest Minnesota

CITY           SKY/WX    TMP DP  RH WIND       PRES   REMARKS
MONTEVIDEO     CLEAR     39  36  87 S7        30.11R
GRANITE FALLS  CLEAR     41  36  83 E6        30.11R
CANBY          CLEAR     37  35  93 CALM      30.09R
MARSHALL       FAIR      37  30  75 SE5       30.08R
REDWOOD FALLS  CLEAR     43  37  79 E5        30.10R
OLIVIA         CLEAR     41  36  81 E5        30.11R
PIPESTONE      CLEAR     43  36  75 SE6       30.08R
WINDOM         CLEAR     36  34  93 CALM      30.10R
WORTHINGTON    CLEAR     37  34  87 CALM      30.10R
JACKSON        CLEAR     36  32  87 CALM      30.10R
TRACY          CLEAR     40  35  82 SE5       30.09S
SLAYTON        CLEAR     37  32  81 CALM      30.09S
$$
MNZ065>067-074>077-082>085-091>093-210900-
   South Central Minnesota

CITY           SKY/WX    TMP DP  RH WIND       PRES   REMARKS
MANKATO        CLEAR     43  36  75 E5        30.12R
NEW ULM        CLEAR     45  39  81 E6        30.11R
ST JAMES       CLEAR     37  34  87 CALM      30.12R
FAIRMONT       CLEAR     39  16  38 CALM      30.10S
GLENCOE        CLEAR     37  36  94 CALM      30.12S
FARIBAULT      CLEAR     32  30  93 CALM      30.13R
OWATONNA       CLEAR     34  32  93 CALM      30.12R
WASECA         CLEAR     36  32  87 CALM      30.13R
ALBERT LEA     CLEAR     37  37 100 N3        30.11R
$$
MNZ078>079-086>088-094>096-210900-
   Southeast Minnesota

CITY           SKY/WX    TMP DP  RH WIND       PRES   REMARKS
ROCHESTER      CLEAR     42  37  82 N5        30.12R
RED WING       CLEAR     36  34  93 CALM      30.12R
STANTON        CLEAR     33  32  94 CALM      30.12R
DODGE CENTER   PTCLDY    39  37  93 CALM      30.12R
WINONA         CLEAR     39  37  93 CALM      30.12R
AUSTIN         CLEAR     37  36  93 CALM      30.11R
PRESTON        CLEAR     40  37  86 CALM      30.12R
$$
ABBREVIATIONS USED IN REMARKS
   TC - TEMPERATURES IN CELSIUS
  WCI - WIND CHILL INDEX
   HX - HEAT INDEX
  VSB - VISIBILITY
$$



USA.gov is the U.S. government's official web portal to all federal, state and local government web resources and services.